Location: Camaret
(48.2753°N, 4.5961°W)
Time: 04:22:03
(UTC+00:00)

USA 215 - Pass Details

Date: 29 October 2020
Orbit: 1102 x 1106 km, 123.0° (Epoch: 28 November)

Event Time Altitude Azimuth Distance (km) Brightness Sun altitude
Exits shadow 19:57:29 59° 38° (NE) 1,262 3.3 -29.3°
Maximum altitude 19:57:51 60° 23° (NNE) 1,253 3.4 -29.4°
Drops below altitude 10° 20:04:16 10° 306° (NW) 2,966 6.3 -30.4°
Sets 20:06:46 0° 303° (WNW) 3,926 7.2 -30.8°
